Weather History for San Jose, Costa Rica

Change the Weather History Date:

Monday, October 10, 2011

  Actual Average Record
Temperature  
Mean Temperature 68 °F -  
Max Temperature 71 °F 78 °F 87 °F (2001)
Min Temperature 66 °F 64 °F 64 °F (1996)
Cooling Degree Days 4    
Growing Degree Days 18 (Base 50)    
Moisture  
Dew Point 69 °F    
Average Humidity 100    
Maximum Humidity 100    
Minimum Humidity 99    
Precipitation  
Precipitation 1.61 in 0.35 in - ()
Sea Level Pressure  
Sea Level Pressure 29.98 in    
Wind  
Wind Speed 2 mph ()    
Max Wind Speed 10 mph    
Max Gust Speed -    
Visibility 4.5 miles    
Events Fog , Rain    
Averages and records for this station are not official NWS values.
T = Trace of Precipitation, MM = Missing Value Source: Averaged Metar Reports

Daily Weather History Graph

Daily Weather History Graph

Search for Another Location

Airport:

Trip Planner

Search our weather history database for the weather conditions in past years. The results will help you decide how hot, cold, wet, or windy it might be!

Date:

Astronomy

Oct. 10, 2011 Rise Set
Actual Time 5:25 AM CST 5:22 PM CST
Civil Twilight 5:04 AM CST 5:43 PM CST
Nautical Twilight 4:39 AM CST 6:07 PM CST
Astronomical Twilight 4:15 AM CST 6:32 PM CST
Moon 4:25 PM CST (10/10) 4:11 AM CST (10/10)
Length of Visible Light 12h 39m
Length of Day
11h 57m
Waxing Gibbous, 98% of the Moon is Illuminated
Oct 10
Waxing Gibbous
Oct 11
Full
Oct 19
Last Quarter
Oct 26
New
Nov 2
First Quarter

Hourly Weather History & Observations

Time (CST) Temp. Dew Point Humidity Pressure Visibility Wind Dir Wind Speed Gust Speed Precip Events Conditions
12:00 AM 68 °F 68 °F 100% 29.80 in 12 mi Calm Calm - -   Overcast
12:00 AM 68.0 °F 68.0 °F 100% 29.99 in - Calm Calm - N/A   Clear
1:00 AM 68.0 °F 68.0 °F 100% 29.98 in - Calm Calm - N/A   Clear
2:00 AM 68.0 °F 68.0 °F 100% 29.96 in - Calm Calm - N/A   Clear
3:00 AM 68 °F 68 °F 100% 29.80 in 12 mi Calm Calm - -   Overcast
3:00 AM 68.0 °F 68.0 °F 100% 29.96 in - Calm Calm - N/A   Clear
4:00 AM 68.0 °F 68.0 °F 100% 29.97 in 6.2 mi Calm Calm - N/A   Mostly Cloudy
5:00 AM 68.0 °F 68.0 °F 100% 29.97 in 6.2 mi Calm Calm - N/A   Mostly Cloudy
6:00 AM 68 °F 68 °F 100% 29.82 in 12 mi Calm Calm - -   Overcast
6:00 AM 68.0 °F 68.0 °F 100% 29.99 in 6.2 mi Calm Calm - N/A   Mostly Cloudy
7:00 AM 69.8 °F 69.8 °F 100% 30.01 in 6.2 mi Calm Calm - N/A   Mostly Cloudy
8:00 AM 71.6 °F 71.6 °F 100% 30.04 in 6.2 mi West 2.3 mph - N/A   Mostly Cloudy
8:40 AM 69.8 °F 69.8 °F 100% 30.06 in 6.2 mi West 6.9 mph - N/A   Drizzle
9:00 AM 70 °F 70 °F 99% 29.92 in 1 mi WSW 4.6 mph - - Rain Light Rain
9:00 AM 69.8 °F 69.8 °F 100% 30.06 in 4.3 mi WSW 4.6 mph - N/A Rain Rain
10:00 AM 69.8 °F 69.8 °F 100% 3.00 in 4.3 mi NW 4.6 mph - N/A Rain Rain
11:00 AM 69.8 °F 69.8 °F 100% 30.04 in 3.1 mi West 10.4 mph - N/A Rain Rain
12:00 PM 70 °F 70 °F 99% 29.88 in 3 mi West 8.1 mph - -   Mist
12:00 PM 69.8 °F 69.8 °F 100% 30.02 in 6.2 mi West 8.1 mph - N/A   Mostly Cloudy
12:25 PM 69.8 °F 69.8 °F 100% 30.01 in 1.9 mi West 9.2 mph - N/A Rain Light Rain
1:00 PM 71.6 °F 71.6 °F 100% 29.99 in 6.2 mi West 10.4 mph - N/A   Mostly Cloudy
2:00 PM 69.8 °F 69.8 °F 100% 29.97 in 6.2 mi WSW 6.9 mph - N/A   Drizzle
3:00 PM 69.8 °F 69.8 °F 100% 2.99 in 3.7 mi Calm Calm - N/A   Drizzle
3:30 PM 68.0 °F 68.0 °F 100% 29.96 in 0.6 mi WSW 2.3 mph - N/A   Heavy Drizzle
4:00 PM 68.0 °F 68.0 °F 100% 29.97 in 1.2 mi Calm Calm - N/A Rain Light Rain
5:00 PM 68.0 °F 68.0 °F 100% 29.97 in 3.1 mi SE 2.3 mph - N/A   Mostly Cloudy
6:00 PM 68.0 °F 68.0 °F 100% 29.99 in 1.9 mi Calm Calm - N/A Rain Light Rain
7:00 PM 68.0 °F 68.0 °F 100% 30.02 in 0.7 mi WSW 5.8 mph - N/A Rain Light Rain
8:00 PM 66.2 °F 66.2 °F 100% 30.05 in 0.9 mi West 5.8 mph - N/A Rain Light Rain
9:00 PM 66 °F 66 °F 100% 29.92 in 1 mi Calm Calm - - Rain Rain
9:00 PM 66.2 °F 66.2 °F 100% 30.07 in 0.9 mi Calm Calm - N/A Rain Rain
10:00 PM 66.2 °F 66.2 °F 100% 30.07 in 1.6 mi Calm Calm - N/A Rain Rain
11:00 PM 66.2 °F 66.2 °F 100% 30.05 in 5.0 mi Calm Calm - N/A Fog , Rain Light Rain